contact:dominique.lefevre@mio.osupytheas.fr, maurice.libes@osupytheas.fr, didier.mallarino@osupytheas.fr
Project:EMSO http://www.emso-fr.org/EMSO-France
Depth: 2436.0 m
Title:EMSO Ligure Ouest : Data MII capteur AQUADOPP
Date,Latitude,Longitude,X_East,Y_North,Z_Up,Amplitude_X,Amplitude_Y,Amplitude_Z,Batterie,SoundSpeed,Heading,Pitch,Roll,Pressure,TIS,Speed,Direction
, degrees North, degrees East, m.s-1, m.s-1,m.s-1, 1, 1, 1, Volt, m.s-1, degree, degree, degree, dbar, degree_C, m.s-1, degree
2023-07-12T00:04:03,42.805,6.029,0.013,-0.013,-0.025,104.0,102.0,102.0,13.4,1505.2,345.0,-0.7,1.8,2471.483,13.29,0.018,135.0
2023-07-12T00:07:03,42.805,6.029,0.005,0.011,-0.004,102.0,103.0,101.0,13.4,1505.2,343.7,-0.8,1.8,2471.51,13.29,0.012,24.4
2023-07-12T00:10:03,42.805,6.029,0.012,0.004,-0.02,103.0,101.0,101.0,13.4,1505.2,342.8,-0.8,1.8,2471.456,13.29,0.012,71.6
2023-07-12T00:13:03,42.805,6.029,0.008,0.016,-0.015,102.0,102.0,101.0,13.3,1505.2,342.3,-0.8,1.8,2471.459,13.29,0.017,26.6
2023-07-12T00:16:03,42.805,6.029,0.019,0.019,-0.003,103.0,102.0,101.0,13.3,1505.2,339.5,-0.8,1.8,2471.49,13.29,0.026,45.0
2023-07-12T00:19:03,42.805,6.029,0.007,-0.026,-0.016,102.0,103.0,101.0,13.3,1505.2,325.2,-0.8,1.8,2471.44,13.29,0.026,164.9
2023-07-12T00:22:03,42.805,6.029,0.025,-0.014,-0.022,102.0,102.0,101.0,13.4,1505.2,339.8,-0.7,1.8,2471.445,13.29,0.028,119.3
2023-07-12T00:25:03,42.805,6.029,0.02,-0.015,-0.021,102.0,102.0,101.0,13.4,1505.2,352.7,-0.8,1.8,2471.462,13.29,0.025,126.9
2023-07-12T00:28:03,42.805,6.029,0.007,0.01,-0.012,103.0,102.0,101.0,13.4,1505.2,341.5,-0.8,1.8,2471.467,13.29,0.012,35.0
2023-07-12T00:31:03,42.805,6.029,0.027,0.02,0.002,102.0,102.0,102.0,13.4,1505.2,348.0,-0.7,1.8,2471.468,13.29,0.033,53.5
2023-07-12T00:34:03,42.805,6.029,0.008,0.006,-0.018,103.0,102.0,102.0,13.3,1505.2,345.4,-0.8,1.8,2471.456,13.29,0.01,53.1
2023-07-12T00:37:03,42.805,6.029,0.008,0.009,0.0,100.0,103.0,102.0,13.3,1505.2,329.8,-0.7,1.9,2471.491,13.29,0.012,41.6
2023-07-12T00:40:03,42.805,6.029,0.011,0.0,-0.032,101.0,102.0,101.0,13.4,1505.2,331.9,-0.7,1.8,2471.468,13.29,0.011,90.0
2023-07-12T00:43:03,42.805,6.029,0.035,0.017,-0.007,103.0,102.0,101.0,13.4,1505.2,347.9,-0.8,1.8,2471.481,13.29,0.038,64.1
2023-07-12T00:46:03,42.805,6.029,0.0,0.007,-0.004,102.0,102.0,100.0,13.4,1505.2,336.2,-0.7,1.8,2471.476,13.29,0.007,0.0
2023-07-12T00:49:03,42.805,6.029,-0.012,-0.002,-0.041,103.0,102.0,102.0,13.4,1505.2,332.5,-0.8,1.8,2471.49,13.29,0.012,260.5
2023-07-12T00:52:03,42.805,6.029,0.012,-0.004,-0.037,103.0,103.0,101.0,13.3,1505.2,354.5,-0.8,1.8,2471.483,13.29,0.012,108.4
2023-07-12T00:55:03,42.805,6.029,0.007,0.017,-0.003,102.0,103.0,101.0,13.4,1505.2,337.7,-0.8,1.8,2471.455,13.29,0.018,22.4
2023-07-12T00:58:03,42.805,6.029,0.017,0.001,-0.01,102.0,103.0,101.0,13.3,1505.2,353.0,-0.8,1.8,2471.501,13.29,0.017,86.6
2023-07-12T01:04:03,42.805,6.029,0.022,0.014,-0.018,103.0,103.0,102.0,13.4,1505.2,332.4,-0.8,1.8,2471.508,13.29,0.026,57.5
2023-07-12T01:07:03,42.805,6.029,0.0,-0.028,-0.056,102.0,101.0,101.0,13.4,1505.2,338.0,-0.8,1.8,2471.503,13.29,0.028,180.0
2023-07-12T01:10:03,42.805,6.029,0.01,0.014,0.018,101.0,105.0,101.0,13.4,1505.2,336.4,-0.8,1.8,2471.494,13.29,0.017,35.5
2023-07-12T01:13:03,42.805,6.029,-0.01,-0.014,-0.04,103.0,102.0,100.0,13.4,1505.2,354.5,-0.8,1.9,2471.503,13.29,0.017,215.5
2023-07-12T01:16:03,42.805,6.029,0.01,0.014,-0.022,103.0,102.0,100.0,13.4,1505.2,347.2,-0.8,1.8,2471.51,13.29,0.017,35.5
2023-07-12T01:19:03,42.805,6.029,0.0,0.004,-0.028,104.0,101.0,100.0,13.4,1505.2,321.3,-0.7,1.8,2471.513,13.29,0.004,0.0
2023-07-12T01:22:02,42.805,6.029,0.028,0.014,0.022,103.0,103.0,102.0,13.4,1505.2,339.7,-0.7,1.8,2471.492,13.29,0.031,63.4
2023-07-12T01:25:03,42.805,6.029,0.018,0.015,-0.001,104.0,103.0,106.0,13.3,1505.2,334.4,-0.8,1.8,2471.484,13.29,0.023,50.2
2023-07-12T01:28:03,42.805,6.029,0.001,0.004,-0.04,102.0,102.0,101.0,13.4,1505.2,335.8,-0.8,1.8,2471.485,13.29,0.004,14.0
2023-07-12T01:31:03,42.805,6.029,0.021,0.021,-0.018,104.0,102.0,101.0,13.4,1505.2,329.0,-0.8,1.8,2471.484,13.29,0.029,45.0
2023-07-12T01:34:03,42.805,6.029,0.004,0.007,-0.022,101.0,103.0,102.0,13.4,1505.2,350.5,-0.8,1.8,2471.501,13.29,0.008,29.7
2023-07-12T01:37:03,42.805,6.029,0.016,-0.009,-0.04,104.0,102.0,101.0,13.4,1505.2,353.1,-0.7,1.8,2471.512,13.29,0.018,119.4
2023-07-12T01:40:03,42.805,6.029,0.017,0.013,0.009,103.0,103.0,100.0,13.4,1505.2,328.8,-0.7,1.8,2471.498,13.29,0.021,52.6
2023-07-12T01:43:03,42.805,6.029,0.038,-0.001,0.006,103.0,101.0,102.0,13.3,1505.2,332.1,-0.7,1.8,2471.446,13.29,0.038,91.5
2023-07-12T01:46:03,42.805,6.029,0.017,0.009,-0.016,102.0,104.0,101.0,13.4,1505.2,343.9,-0.8,1.8,2471.482,13.29,0.019,62.1
2023-07-12T01:49:03,42.805,6.029,0.007,0.0,-0.018,103.0,102.0,101.0,13.4,1505.2,330.1,-0.8,1.8,2471.506,13.29,0.007,90.0
2023-07-12T01:52:03,42.805,6.029,0.005,-0.005,-0.025,104.0,103.0,101.0,13.3,1505.2,353.1,-0.8,1.8,2471.484,13.29,0.007,135.0
2023-07-12T01:55:03,42.805,6.029,0.022,-0.01,-0.018,102.0,103.0,100.0,13.3,1505.2,323.3,-0.8,1.8,2471.462,13.29,0.024,114.4
2023-07-12T01:58:03,42.805,6.029,0.015,0.004,-0.017,103.0,102.0,100.0,13.3,1505.2,325.0,-0.7,1.8,2471.525,13.29,0.015,75.1
2023-07-12T02:04:03,42.805,6.029,0.0,0.007,-0.023,101.0,102.0,101.0,13.3,1505.2,325.3,-0.8,1.8,2471.519,13.29,0.007,0.0
2023-07-12T02:07:03,42.805,6.029,-0.009,0.03,-0.021,102.0,104.0,100.0,13.4,1505.2,344.3,-0.8,1.8,2471.523,13.29,0.031,343.3
2023-07-12T02:10:03,42.805,6.029,0.011,0.009,-0.006,102.0,102.0,101.0,13.3,1505.2,350.3,-0.7,1.8,2471.549,13.29,0.014,50.7
2023-07-12T02:13:03,42.805,6.029,0.019,-0.006,-0.043,102.0,104.0,102.0,13.3,1505.2,333.9,-0.8,1.8,2471.472,13.29,0.019,107.5
2023-07-12T02:16:03,42.805,6.029,0.019,0.0,-0.017,103.0,103.0,101.0,13.4,1505.2,332.9,-0.8,1.8,2471.5,13.29,0.019,90.0
2023-07-12T02:19:03,42.805,6.029,0.019,0.019,-0.036,102.0,102.0,101.0,13.4,1505.2,353.2,-0.8,1.8,2471.51,13.29,0.026,45.0
2023-07-12T02:22:03,42.805,6.029,0.028,0.014,-0.02,102.0,102.0,102.0,13.3,1505.2,343.0,-0.8,1.8,2471.53,13.29,0.031,63.4
2023-07-12T02:25:03,42.805,6.029,0.022,-0.004,-0.011,103.0,103.0,100.0,13.4,1505.2,352.0,-0.8,1.8,2471.462,13.29,0.022,100.3
2023-07-12T02:28:03,42.805,6.029,0.003,-0.008,-0.042,101.0,103.0,102.0,13.4,1505.2,345.7,-0.8,1.8,2471.509,13.29,0.008,159.4
2023-07-12T02:31:03,42.805,6.029,0.006,0.009,-0.002,102.0,102.0,106.0,13.4,1505.2,323.1,-0.8,1.8,2471.498,13.29,0.01,33.7
2023-07-12T02:34:03,42.805,6.029,0.009,0.004,0.019,102.0,102.0,101.0,13.4,1505.2,334.6,-0.8,1.8,2471.481,13.29,0.009,66.0
2023-07-12T02:37:03,42.805,6.029,0.005,0.016,-0.023,102.0,103.0,101.0,13.3,1505.2,354.4,-0.7,1.8,2471.506,13.29,0.016,17.4
2023-07-12T02:40:03,42.805,6.029,0.001,0.019,-0.038,101.0,103.0,102.0,13.4,1505.2,339.3,-0.7,1.8,2471.478,13.29,0.019,3.0
2023-07-12T02:43:03,42.805,6.029,0.007,0.045,0.033,103.0,103.0,101.0,13.3,1505.2,342.9,-0.7,1.8,2471.487,13.29,0.045,8.8
2023-07-12T02:46:03,42.805,6.029,0.015,0.004,-0.02,103.0,103.0,102.0,13.3,1505.2,324.0,-0.7,1.8,2471.505,13.29,0.015,75.1
2023-07-12T02:49:03,42.805,6.029,0.007,0.028,0.011,102.0,103.0,101.0,13.4,1505.2,332.9,-0.8,1.8,2471.499,13.29,0.028,14.0
2023-07-12T02:52:03,42.805,6.029,-0.004,0.001,-0.009,103.0,102.0,101.0,13.4,1505.2,352.1,-0.8,1.8,2471.507,13.29,0.004,284.0
2023-07-12T02:55:03,42.805,6.029,0.035,0.001,-0.017,102.0,104.0,102.0,13.4,1505.2,332.3,-0.8,1.8,2471.482,13.29,0.035,88.4
2023-07-12T02:58:03,42.805,6.029,0.011,0.016,-0.036,103.0,103.0,101.0,13.3,1505.2,348.9,-0.8,1.9,2471.48,13.29,0.019,34.5
2023-07-12T03:04:03,42.805,6.029,0.028,-0.005,-0.02,102.0,103.0,101.0,13.4,1505.2,338.3,-0.7,1.8,2471.559,13.29,0.028,100.1
2023-07-12T03:07:03,42.805,6.029,0.01,0.029,0.005,103.0,103.0,102.0,13.4,1505.2,333.4,-0.8,1.8,2471.524,13.29,0.03,19.0
2023-07-12T03:10:03,42.805,6.029,-0.002,0.002,-0.006,102.0,103.0,101.0,13.4,1505.2,345.7,-0.8,1.8,2471.538,13.29,0.002,315.0
2023-07-12T03:13:03,42.805,6.029,0.004,-0.007,-0.04,103.0,102.0,102.0,13.4,1505.2,332.4,-0.8,1.8,2471.511,13.29,0.008,150.3
2023-07-12T03:16:03,42.805,6.029,0.008,-0.022,-0.048,102.0,104.0,101.0,13.4,1505.2,326.8,-0.8,1.8,2471.52,13.29,0.023,160.0
2023-07-12T03:19:03,42.805,6.029,0.015,0.002,-0.013,105.0,103.0,101.0,13.3,1505.2,342.8,-0.8,1.8,2471.492,13.29,0.015,82.4
2023-07-12T03:22:03,42.805,6.029,0.009,0.0,-0.023,102.0,103.0,102.0,13.4,1505.2,348.9,-0.8,1.8,2471.485,13.29,0.009,90.0
2023-07-12T03:25:03,42.805,6.029,0.012,0.008,-0.017,103.0,104.0,101.0,13.4,1505.2,339.3,-0.8,1.8,2471.522,13.29,0.014,56.3
2023-07-12T03:28:03,42.805,6.029,0.011,-0.015,-0.022,102.0,104.0,102.0,13.4,1505.2,352.8,-0.8,1.8,2471.521,13.29,0.018,143.7
2023-07-12T03:31:03,42.805,6.029,0.004,0.012,-0.02,102.0,103.0,102.0,13.4,1505.2,330.2,-0.8,1.8,2471.489,13.29,0.012,18.4
2023-07-12T03:34:03,42.805,6.029,0.014,0.008,-0.014,104.0,102.0,100.0,13.4,1505.2,341.1,-0.8,1.8,2471.468,13.29,0.016,60.3
2023-07-12T03:37:03,42.805,6.029,0.02,0.009,-0.014,103.0,103.0,100.0,13.4,1505.2,326.5,-0.7,1.8,2471.509,13.29,0.021,65.8
2023-07-12T03:40:03,42.805,6.029,0.034,-0.002,-0.015,104.0,103.0,102.0,13.4,1505.2,326.6,-0.8,1.8,2471.437,13.29,0.034,93.4
2023-07-12T03:43:03,42.805,6.029,-0.003,0.011,-0.007,104.0,103.0,102.0,13.4,1505.2,333.4,-0.8,1.8,2471.435,13.29,0.011,344.7
2023-07-12T03:46:03,42.805,6.029,-0.003,0.007,-0.003,103.0,103.0,101.0,13.3,1505.2,345.7,-0.8,1.8,2471.504,13.29,0.007,336.8
2023-07-12T03:49:03,42.805,6.029,0.018,0.008,0.011,106.0,103.0,102.0,13.4,1505.2,335.5,-0.8,1.8,2471.449,13.29,0.019,66.0
2023-07-12T03:52:03,42.805,6.029,-0.005,0.026,0.016,103.0,104.0,101.0,13.4,1505.2,346.7,-0.8,1.8,2471.492,13.29,0.026,349.1
2023-07-12T03:55:03,42.805,6.029,0.015,-0.006,0.002,104.0,104.0,101.0,13.4,1505.2,326.9,-0.7,1.8,2471.494,13.29,0.016,111.8
2023-07-12T03:58:03,42.805,6.029,0.0,0.006,-0.037,104.0,103.0,102.0,13.4,1505.2,330.4,-0.7,1.8,2471.45,13.29,0.006,0.0
2023-07-12T04:04:03,42.805,6.029,0.01,0.016,0.008,104.0,103.0,102.0,13.4,1505.2,330.1,-0.8,1.8,2471.506,13.29,0.018,32.0
2023-07-12T04:07:03,42.805,6.029,0.001,-0.012,-0.021,104.0,105.0,101.0,13.3,1505.2,327.7,-0.8,1.8,2471.515,13.29,0.012,175.2
2023-07-12T04:10:03,42.805,6.029,-0.011,0.012,0.014,103.0,103.0,103.0,13.3,1505.2,333.8,-0.8,1.8,2471.512,13.29,0.016,317.5
2023-07-12T04:13:03,42.805,6.029,0.0,0.004,-0.014,103.0,111.0,102.0,13.3,1505.2,332.9,-0.8,1.8,2471.494,13.29,0.004,0.0
2023-07-12T04:16:03,42.805,6.029,0.01,-0.005,0.007,104.0,103.0,101.0,13.4,1505.2,327.9,-0.8,1.8,2471.492,13.29,0.011,116.6
2023-07-12T04:19:03,42.805,6.029,0.015,0.0,0.005,104.0,104.0,102.0,13.4,1505.2,329.7,-0.8,1.8,2471.483,13.29,0.015,90.0
2023-07-12T04:22:03,42.805,6.029,0.002,-0.008,-0.008,104.0,104.0,101.0,13.4,1505.2,338.8,-0.7,1.8,2471.477,13.29,0.008,166.0
2023-07-12T04:25:03,42.805,6.029,-0.014,0.017,0.0,104.0,102.0,101.0,13.4,1505.2,322.2,-0.8,1.8,2471.496,13.29,0.022,320.5
2023-07-12T04:28:03,42.805,6.029,0.002,0.0,-0.041,104.0,103.0,103.0,13.3,1505.2,344.0,-0.8,1.8,2471.501,13.29,0.002,90.0
2023-07-12T04:31:03,42.805,6.029,-0.007,0.009,-0.045,103.0,105.0,101.0,13.4,1505.2,329.8,-0.8,1.8,2471.498,13.29,0.011,322.1
2023-07-12T04:34:03,42.805,6.029,-0.013,-0.001,-0.048,103.0,104.0,101.0,13.4,1505.2,351.8,-0.8,1.8,2471.454,13.29,0.013,265.6
2023-07-12T04:37:03,42.805,6.029,0.012,-0.01,-0.005,104.0,104.0,102.0,13.3,1505.2,332.2,-0.8,1.8,2471.497,13.29,0.015,129.8
2023-07-12T04:40:03,42.805,6.029,-0.003,0.018,0.013,103.0,103.0,102.0,13.4,1505.2,331.6,-0.7,1.8,2471.47,13.29,0.018,350.5
2023-07-12T04:43:03,42.805,6.029,0.012,-0.003,-0.01,104.0,103.0,101.0,13.4,1505.2,328.2,-0.8,1.8,2471.493,13.29,0.012,104.0
2023-07-12T04:46:03,42.805,6.029,0.009,-0.004,-0.036,104.0,102.0,102.0,13.3,1505.2,329.8,-0.7,1.8,2471.461,13.29,0.009,114.0
2023-07-12T04:49:03,42.805,6.029,0.0,0.0,-0.002,104.0,103.0,102.0,13.3,1505.2,340.8,-0.8,1.8,2471.467,13.29,0.0,0.0
2023-07-12T04:52:03,42.805,6.029,0.013,0.008,-0.009,103.0,105.0,102.0,13.4,1505.2,331.8,-0.8,1.8,2471.493,13.29,0.015,58.4
2023-07-12T04:55:03,42.805,6.029,-0.01,0.006,-0.025,105.0,103.0,101.0,13.4,1505.2,342.7,-0.8,1.8,2471.436,13.29,0.011,301.0
2023-07-12T04:58:03,42.805,6.029,0.021,0.003,-0.02,103.0,103.0,102.0,13.4,1505.2,345.6,-0.8,1.8,2471.445,13.29,0.021,81.9
2023-07-12T05:04:03,42.805,6.029,0.009,0.013,-0.027,102.0,104.0,102.0,13.3,1505.2,332.9,-0.8,1.8,2471.495,13.29,0.015,34.7
2023-07-12T05:07:03,42.805,6.029,-0.008,0.011,-0.008,103.0,105.0,102.0,13.4,1505.2,329.1,-0.8,1.8,2471.508,13.29,0.013,324.0
2023-07-12T05:10:03,42.805,6.029,0.004,-0.014,-0.03,103.0,105.0,101.0,13.4,1505.2,341.2,-0.8,1.8,2471.512,13.29,0.014,164.1
2023-07-12T05:13:03,42.805,6.029,-0.004,-0.004,-0.017,103.0,102.0,102.0,13.3,1505.2,342.3,-0.8,1.8,2471.508,13.29,0.005,225.0
2023-07-12T05:16:03,42.805,6.029,0.0,0.0,0.003,103.0,104.0,100.0,13.4,1505.2,322.3,-0.8,1.8,2471.488,13.29,0.0,0.0
2023-07-12T05:19:03,42.805,6.029,0.007,0.006,0.001,104.0,103.0,101.0,13.4,1505.2,337.4,-0.8,1.8,2471.486,13.29,0.009,49.4
2023-07-12T05:22:03,42.805,6.029,-0.004,0.008,-0.025,104.0,104.0,101.0,13.4,1505.2,341.9,-0.8,1.8,2471.455,13.29,0.008,333.4
2023-07-12T05:25:03,42.805,6.029,-0.003,0.0,-0.028,103.0,103.0,101.0,13.4,1505.2,338.4,-0.8,1.8,2471.446,13.29,0.003,270.0
2023-07-12T05:28:03,42.805,6.029,0.013,-0.01,-0.012,103.0,103.0,102.0,13.4,1505.2,336.3,-0.7,1.8,2471.488,13.29,0.016,127.6
2023-07-12T05:31:03,42.805,6.029,0.002,0.011,-0.007,103.0,105.0,102.0,13.3,1505.2,340.0,-0.8,1.9,2471.464,13.29,0.011,10.3
2023-07-12T05:34:03,42.805,6.029,0.016,-0.008,-0.017,103.0,105.0,101.0,13.4,1505.2,352.8,-0.8,1.8,2471.45,13.29,0.017,116.6
2023-07-12T05:37:03,42.805,6.029,0.009,-0.002,-0.029,102.0,102.0,101.0,13.4,1505.2,329.2,-0.8,1.8,2471.444,13.29,0.009,102.5
2023-07-12T05:40:03,42.805,6.029,0.005,-0.012,-0.029,101.0,103.0,101.0,13.4,1505.2,328.5,-0.8,1.8,2471.458,13.29,0.013,157.4
2023-07-12T05:43:03,42.805,6.029,0.001,0.018,-0.006,101.0,102.0,101.0,13.4,1505.2,338.7,-0.8,1.8,2471.439,13.29,0.018,3.2
2023-07-12T05:46:03,42.805,6.029,-0.015,0.014,-0.019,102.0,103.0,101.0,13.3,1505.2,336.1,-0.8,1.8,2471.427,13.29,0.02,313.0
2023-07-12T05:49:03,42.805,6.029,-0.013,0.01,-0.034,101.0,103.0,100.0,13.4,1505.2,347.6,-0.7,1.8,2471.443,13.29,0.016,307.6
2023-07-12T05:52:03,42.805,6.029,0.012,-0.016,0.017,103.0,102.0,100.0,13.4,1505.2,336.0,-0.8,1.8,2471.463,13.29,0.02,143.1
2023-07-12T05:55:03,42.805,6.029,-0.007,0.012,-0.016,105.0,102.0,101.0,13.4,1505.2,335.5,-0.8,1.8,2471.45,13.29,0.013,329.7
2023-07-12T05:58:03,42.805,6.029,0.003,-0.003,-0.041,102.0,102.0,102.0,13.3,1505.2,333.4,-0.8,1.8,2471.448,13.29,0.004,135.0
2023-07-12T06:04:03,42.805,6.029,-0.011,-0.004,-0.049,103.0,102.0,102.0,13.4,1505.2,353.1,-0.8,1.8,2471.484,13.29,0.011,250.0
2023-07-12T06:07:03,42.805,6.029,0.005,0.003,-0.009,103.0,103.0,101.0,13.3,1505.2,334.4,-0.8,1.8,2471.432,13.29,0.005,59.0
2023-07-12T06:10:03,42.805,6.029,0.014,0.002,-0.038,102.0,103.0,101.0,13.4,1505.2,335.7,-0.8,1.8,2471.466,13.29,0.014,81.9
2023-07-12T06:13:03,42.805,6.029,0.011,-0.005,-0.027,103.0,103.0,101.0,13.4,1505.2,345.9,-0.8,1.9,2471.484,13.29,0.012,114.4
2023-07-12T06:16:03,42.805,6.029,-0.001,0.024,0.018,102.0,103.0,101.0,13.4,1505.2,332.1,-0.8,1.8,2471.435,13.29,0.024,357.6
2023-07-12T06:19:03,42.805,6.029,-0.001,-0.004,-0.019,103.0,103.0,101.0,13.4,1505.2,328.1,-0.8,1.8,2471.469,13.29,0.004,194.0
2023-07-12T06:22:03,42.805,6.029,-0.009,0.011,-0.044,101.0,102.0,102.0,13.3,1505.2,333.4,-0.8,1.8,2471.454,13.3,0.014,320.7
2023-07-12T06:25:03,42.805,6.029,0.004,0.005,-0.015,103.0,103.0,102.0,13.4,1505.2,351.2,-0.8,1.8,2471.415,13.3,0.006,38.7
2023-07-12T06:28:03,42.805,6.029,0.0,-0.007,-0.017,107.0,102.0,102.0,13.4,1505.2,338.2,-0.8,1.8,2471.418,13.3,0.007,180.0
2023-07-12T06:31:03,42.805,6.029,0.0,0.006,-0.001,102.0,103.0,102.0,13.3,1505.2,338.0,-0.7,1.8,2471.405,13.3,0.006,0.0
2023-07-12T06:34:03,42.805,6.029,0.011,-0.012,-0.016,103.0,102.0,104.0,13.3,1505.2,344.4,-0.8,1.8,2471.433,13.3,0.016,137.5
2023-07-12T06:37:03,42.805,6.029,0.01,0.008,-0.012,103.0,103.0,102.0,13.3,1505.2,349.7,-0.8,1.8,2471.42,13.3,0.012,51.3
2023-07-12T06:40:03,42.805,6.029,0.007,0.006,-0.017,103.0,104.0,101.0,13.4,1505.2,330.8,-0.7,1.8,2471.409,13.3,0.009,49.4
2023-07-12T06:43:03,42.805,6.029,-0.006,0.01,-0.019,105.0,104.0,101.0,13.4,1505.2,339.5,-0.8,1.8,2471.399,13.3,0.011,329.0
2023-07-12T06:46:03,42.805,6.029,0.0,-0.012,-0.016,103.0,104.0,101.0,13.4,1505.2,339.4,-0.7,1.8,2471.4,13.3,0.012,180.0
2023-07-12T06:49:03,42.805,6.029,0.004,0.019,-0.013,102.0,102.0,101.0,13.4,1505.2,321.0,-0.7,1.8,2471.4,13.3,0.019,11.9
2023-07-12T06:52:03,42.805,6.029,0.009,0.003,-0.012,102.0,104.0,101.0,13.3,1505.2,329.8,-0.7,1.8,2471.397,13.3,0.009,71.6
2023-07-12T06:55:03,42.805,6.029,0.0,0.0,0.0,103.0,103.0,102.0,13.3,1505.2,332.1,-0.8,1.8,2471.434,13.3,0.0,0.0
2023-07-12T06:58:03,42.805,6.029,-0.006,0.001,0.004,103.0,104.0,106.0,13.3,1505.2,332.9,-0.8,1.8,2471.411,13.3,0.006,279.5
2023-07-12T07:04:03,42.805,6.029,-0.005,-0.002,-0.054,103.0,104.0,101.0,13.4,1505.2,329.2,-0.8,1.8,2471.44,13.29,0.005,248.2
2023-07-12T07:07:03,42.805,6.029,0.0,-0.009,-0.002,104.0,104.0,100.0,13.4,1505.2,335.2,-0.8,1.8,2471.43,13.29,0.009,180.0
2023-07-12T07:10:03,42.805,6.029,-0.013,-0.004,-0.052,103.0,103.0,102.0,13.3,1505.2,327.6,-0.8,1.8,2471.409,13.3,0.013,252.9
2023-07-12T07:13:03,42.805,6.029,0.007,0.005,0.017,105.0,105.0,102.0,13.4,1505.2,332.5,-0.8,1.8,2471.375,13.3,0.008,54.5
2023-07-12T07:16:03,42.805,6.029,0.016,-0.018,-0.039,103.0,104.0,102.0,13.4,1505.2,351.7,-0.8,1.9,2471.413,13.3,0.024,138.4
2023-07-12T07:19:03,42.805,6.029,0.013,0.0,-0.04,103.0,102.0,101.0,13.4,1505.2,350.7,-0.7,1.8,2471.448,13.3,0.013,90.0
2023-07-12T07:22:03,42.805,6.029,0.01,0.003,-0.017,108.0,102.0,102.0,13.4,1505.2,332.9,-0.7,1.8,2471.4,13.3,0.01,73.3
2023-07-12T07:25:03,42.805,6.029,0.015,0.021,-0.001,103.0,103.0,102.0,13.4,1505.2,330.2,-0.8,1.8,2471.389,13.3,0.025,35.5
2023-07-12T07:28:03,42.805,6.029,-0.009,0.011,-0.02,103.0,105.0,101.0,13.4,1505.2,334.4,-0.8,1.8,2471.409,13.3,0.014,320.7
2023-07-12T07:31:03,42.805,6.029,0.004,0.007,-0.017,104.0,102.0,101.0,13.4,1505.2,325.7,-0.8,1.8,2471.401,13.3,0.008,29.7
2023-07-12T07:34:03,42.805,6.029,0.004,0.003,-0.03,104.0,104.0,101.0,13.4,1505.2,336.0,-0.8,1.8,2471.364,13.3,0.005,53.1
2023-07-12T07:37:03,42.805,6.029,-0.006,0.002,-0.029,103.0,104.0,101.0,13.4,1505.2,350.5,-0.8,1.8,2471.39,13.3,0.006,288.4
2023-07-12T07:40:03,42.805,6.029,0.017,0.015,0.004,104.0,104.0,103.0,13.3,1505.2,353.0,-0.8,1.8,2471.419,13.3,0.022,48.6
2023-07-12T07:43:03,42.805,6.029,0.008,0.007,-0.019,104.0,104.0,102.0,13.4,1505.2,346.7,-0.8,1.8,2471.376,13.3,0.01,48.8
2023-07-12T07:46:03,42.805,6.029,0.004,0.005,-0.037,104.0,103.0,102.0,13.4,1505.2,333.4,-0.8,1.8,2471.399,13.3,0.006,38.7
2023-07-12T07:49:03,42.805,6.029,-0.008,0.011,-0.039,104.0,103.0,101.0,13.3,1505.2,342.6,-0.8,1.8,2471.359,13.3,0.013,324.0
2023-07-12T07:52:03,42.805,6.029,-0.014,0.025,0.026,103.0,103.0,101.0,13.4,1505.2,321.3,-0.8,1.8,2471.365,13.3,0.028,330.7
2023-07-12T07:55:03,42.805,6.029,0.006,0.017,0.0,103.0,102.0,101.0,13.3,1505.2,340.3,-0.8,1.8,2471.391,13.3,0.018,19.4
2023-07-12T07:58:03,42.805,6.029,-0.012,0.0,-0.068,104.0,103.0,100.0,13.4,1505.2,323.4,-0.8,1.8,2471.386,13.3,0.012,270.0
2023-07-12T08:04:03,42.805,6.029,0.019,-0.004,0.027,104.0,103.0,102.0,13.4,1505.2,342.3,-0.8,1.8,2471.437,13.29,0.019,101.9
2023-07-12T08:07:03,42.805,6.029,0.005,-0.003,-0.048,103.0,104.0,102.0,13.4,1505.2,328.8,-0.7,1.8,2471.409,13.29,0.005,121.0
2023-07-12T08:10:03,42.805,6.029,0.0,0.004,-0.019,105.0,104.0,103.0,13.4,1505.2,345.9,-0.8,1.8,2471.413,13.29,0.004,0.0
2023-07-12T08:13:03,42.805,6.029,0.001,0.026,-0.018,104.0,104.0,101.0,13.3,1505.2,326.0,-0.8,1.8,2471.421,13.3,0.026,2.2
2023-07-12T08:16:03,42.805,6.029,0.015,0.007,-0.019,105.0,102.0,102.0,13.4,1505.2,331.3,-0.7,1.8,2471.386,13.3,0.016,65.0
2023-07-12T08:19:03,42.805,6.029,0.022,0.025,-0.018,103.0,103.0,102.0,13.4,1505.2,339.5,-0.8,1.8,2471.379,13.3,0.033,41.3
2023-07-12T08:22:03,42.805,6.029,-0.007,0.016,-0.033,103.0,104.0,102.0,13.4,1505.2,354.2,-0.7,1.8,2471.384,13.3,0.017,336.4
2023-07-12T08:25:03,42.805,6.029,0.014,-0.009,-0.024,104.0,104.0,102.0,13.4,1505.2,352.0,-0.8,1.8,2471.404,13.3,0.016,122.7
2023-07-12T08:28:03,42.805,6.029,0.01,0.028,-0.008,105.0,106.0,101.0,13.4,1505.2,333.8,-0.8,1.8,2471.395,13.3,0.029,19.6
2023-07-12T08:31:03,42.805,6.029,0.012,0.02,0.009,103.0,103.0,102.0,13.4,1505.2,322.9,-0.8,1.8,2471.346,13.3,0.023,31.0
2023-07-12T08:34:03,42.805,6.029,-0.006,0.015,-0.035,105.0,104.0,103.0,13.4,1505.2,322.3,-0.7,1.8,2471.35,13.3,0.016,338.2
2023-07-12T08:37:03,42.805,6.029,-0.001,0.018,-0.013,105.0,103.0,101.0,13.3,1505.2,332.5,-0.7,1.8,2471.339,13.3,0.018,356.8
2023-07-12T08:40:03,42.805,6.029,0.026,0.002,-0.011,105.0,104.0,103.0,13.4,1505.2,348.9,-0.7,1.8,2471.376,13.3,0.026,85.6
2023-07-12T08:43:03,42.805,6.029,0.003,0.002,0.013,104.0,104.0,102.0,13.3,1505.2,325.8,-0.8,1.8,2471.37,13.3,0.003,56.3
2023-07-12T08:46:03,42.805,6.029,0.021,0.0,-0.018,103.0,105.0,102.0,13.4,1505.2,348.9,-0.7,1.8,2471.387,13.3,0.021,90.0
2023-07-12T08:49:03,42.805,6.029,0.0,-0.001,-0.034,105.0,105.0,102.0,13.4,1505.2,331.9,-0.8,1.8,2471.371,13.3,0.001,180.0
2023-07-12T08:52:03,42.805,6.029,0.0,-0.012,-0.019,104.0,104.0,101.0,13.4,1505.2,345.7,-0.8,1.8,2471.357,13.3,0.012,180.0
2023-07-12T08:55:03,42.805,6.029,-0.01,0.013,-0.034,104.0,104.0,102.0,13.4,1505.2,332.1,-0.7,1.9,2471.372,13.3,0.016,322.4
2023-07-12T08:58:03,42.805,6.029,-0.006,0.016,-0.015,104.0,103.0,102.0,13.3,1505.2,324.0,-0.8,1.8,2471.375,13.3,0.017,339.4
2023-07-12T09:04:03,42.805,6.029,0.006,0.019,-0.018,103.0,104.0,102.0,13.3,1505.2,328.3,-0.8,1.8,2471.399,13.29,0.019,17.5
2023-07-12T09:07:03,42.805,6.029,-0.001,0.011,-0.038,103.0,104.0,103.0,13.4,1505.2,337.1,-0.7,1.8,2471.37,13.29,0.011,354.8
2023-07-12T09:10:03,42.805,6.029,0.017,0.014,-0.009,104.0,104.0,102.0,13.4,1505.2,351.2,-0.7,1.8,2471.392,13.29,0.022,50.5
2023-07-12T09:13:03,42.805,6.029,0.014,0.007,-0.006,103.0,104.0,102.0,13.4,1505.2,332.1,-0.8,1.8,2471.405,13.29,0.015,63.4
2023-07-12T09:16:03,42.805,6.029,0.025,-0.01,-0.032,103.0,103.0,102.0,13.4,1505.2,339.7,-0.8,1.8,2471.373,13.29,0.026,111.8
2023-07-12T09:19:03,42.805,6.029,0.001,-0.002,-0.004,106.0,103.0,102.0,13.4,1505.2,326.5,-0.8,1.8,2471.37,13.29,0.002,153.4
2023-07-12T09:22:03,42.805,6.029,-0.023,0.016,0.0,104.0,104.0,103.0,13.4,1505.2,334.6,-0.8,1.8,2471.356,13.29,0.028,304.8
2023-07-12T09:25:03,42.805,6.029,0.003,-0.007,-0.021,103.0,104.0,101.0,13.3,1505.2,343.7,-0.8,1.9,2471.377,13.29,0.007,156.8
2023-07-12T09:28:03,42.805,6.029,-0.009,0.018,0.003,104.0,104.0,102.0,13.3,1505.2,333.4,-0.8,1.8,2471.35,13.29,0.02,333.4
2023-07-12T09:31:03,42.805,6.029,0.016,0.006,-0.006,104.0,104.0,102.0,13.3,1505.2,321.0,-0.8,1.8,2471.357,13.29,0.017,69.4
2023-07-12T09:34:03,42.805,6.029,-0.007,0.008,0.024,105.0,104.0,103.0,13.4,1505.2,340.2,-0.8,1.8,2471.353,13.29,0.01,318.8
2023-07-12T09:37:03,42.805,6.029,-0.018,0.012,-0.017,104.0,104.0,102.0,13.4,1505.2,340.2,-0.8,1.8,2471.35,13.29,0.021,303.7
2023-07-12T09:40:03,42.805,6.029,0.005,0.001,-0.018,105.0,104.0,102.0,13.4,1505.2,328.8,-0.8,1.8,2471.369,13.29,0.005,78.7
2023-07-12T09:43:03,42.805,6.029,-0.01,0.006,-0.029,104.0,105.0,103.0,13.3,1505.2,322.3,-0.8,1.8,2471.326,13.29,0.011,301.0
2023-07-12T09:46:03,42.805,6.029,0.013,0.002,-0.007,105.0,104.0,102.0,13.4,1505.2,331.9,-0.8,1.8,2471.375,13.29,0.013,81.3
2023-07-12T09:49:03,42.805,6.029,0.013,-0.024,-0.073,104.0,103.0,102.0,13.4,1505.2,321.1,-0.8,1.8,2471.355,13.29,0.027,151.6
2023-07-12T09:52:03,42.805,6.029,0.009,0.002,-0.01,104.0,104.0,102.0,13.4,1505.2,333.4,-0.8,1.8,2471.337,13.29,0.009,77.5
2023-07-12T09:55:03,42.805,6.029,-0.014,0.02,-0.025,103.0,105.0,102.0,13.4,1505.2,323.1,-0.7,1.8,2471.345,13.29,0.024,325.0
2023-07-12T09:58:03,42.805,6.029,-0.022,-0.006,-0.027,105.0,105.0,102.0,13.4,1505.2,350.3,-0.7,1.8,2471.344,13.29,0.022,254.7
2023-07-12T10:04:03,42.805,6.029,0.007,0.03,-0.008,104.0,104.0,102.0,13.4,1505.2,332.1,-0.8,1.8,2471.351,13.29,0.03,13.1